Tracking 30995 objects as of 7-Jul-2025
HD Live streaming from Space Station
objects crossing your sky now

OPS 4682 DEB

Track OPS 4682 DEB now!
10-day predictions


NORAD ID: 19593
Int'l Code: 1965-027AW
Perigee: 1,265.7 km
Apogee: 1,307.5 km
Inclination: 90.2 °
Period: 111.1 minutes
Semi major axis: 7657 km
RCS: 0.0119 m2 (small)
Launch date: April 3, 1965
Source: United States (US)
Launch site: AIR FORCE WESTERN TEST RANGE (AFWTR)

Note: This is SATELLITE DEBRIS
Your satellite tracking list
SENTINEL 1B
Track 1 satellite(s)




NASA's NSSDC Master Catalog

Two Line Element Set (TLE):
1 19593U 65027AW  25186.92781302 -.00000026  00000-0 -11720-3 0  9995
2 19593  90.2375 358.9507 0027271 309.1224 208.2926 12.95573886757239
Source of the keplerian elements: AFSPC